sat.trackr.live / text

‹ back to catalog

STARLINK-36586

NORAD 67548 · 2026-014S

PAYLOAD ACTIVE UNKNOWN

§ Identity

Operator
Country
US
Launch date
2026-01-22
Launch site
AFWTR
Launch vehicle
Mass (kg)
RCS (m²)

Purposes: comms

External: N2YO · Heavens-Above · Gunter

§ Orbital elements

Epoch: 2026-05-25T03:15:30.261024Z

Period
93.91 min
Inclination
97.2875°
Eccentricity
0.0001152
Mean motion
15.33456697 rev/d
Perigee alt
464.7 km
Apogee alt
466.3 km
Semi-major
6,843.6 km
B*
7.2733e-4
RAAN
32.2549°
Arg perigee
94.4476°
Mean anomaly
265.6899°
Rev number
2,050

§ Raw data

STARLINK-365861 67548U 26014S   26145.13576691  .00023488  00000+0  72733-3 0  99982 67548  97.2875  32.2549 0001152  94.4476 265.6899 15.33456697 20509

JSON: /api/v1/satellites/67548 · /tle

For live sub-satellite position, see the globe view (requires WebGL).

§ Visibility from observer

Set your observer location to see the next 7 days of passes ≥ 10°. The values pass through the URL so the page stays shareable.

No JS? Fill the form by hand. The geolocation button needs JavaScript.